Theta_e
317 317 316 315 315 316 315 315 315 315 315 315 315 315 315 316 317 317 318 318 316 314 314 314 314 313 314 315 316 318 319 320 321 322 322 324 325 328 328 329 329 331
315 315 315 315 314 314 314 314 314 314 314 314 314 315 316 316 315 315 315 316 316 312 311 311 311 311 311 312 312 313 314 315 316 318 316 318 321 323 324 326 329 330
313 313 313 312 312 313 313 313 313 313 312 312 313 313 313 314 314 313 314 314 314 312 310 310 310 309 309 310 310 311 311 311 312 313 313 315 317 318 319 321 322 325
312 312 311 311 310 309 310 309 309 310 311 310 310 311 312 312 312 312 312 312 311 310 309 309 308 308 308 308 308 308 309 309 310 310 310 312 314 314 314 316 318 319
310 310 309 309 308 308 308 307 307 307 308 308 309 309 310 310 309 309 309 308 308 307 306 306 306 306 306 306 306 306 306 306 307 307 307 308 310 311 312 313 313 314
309 308 308 307 307 307 307 306 306 306 306 306 307 308 308 308 307 306 306 306 306 305 304 304 304 305 305 305 305 305 305 304 305 305 305 306 307 309 310 310 310 311
307 307 307 307 307 307 306 306 306 306 306 306 306 306 307 306 306 305 305 305 304 304 303 304 304 304 304 304 304 303 303 304 304 304 303 304 305 306 308 309 309 310
307 307 307 307 306 306 306 305 306 305 305 305 305 305 306 305 305 305 304 304 303 303 303 304 304 304 304 303 302 301 302 303 302 302 302 303 304 304 306 307 308 308
307 307 306 306 305 305 305 304 305 305 305 304 304 304 305 304 304 304 303 303 303 303 303 303 303 303 303 302 301 300 301 301 302 302 302 303 303 304 305 306 307 308
306 306 305 305 305 304 304 304 304 304 305 304 303 304 304 304 304 303 303 303 303 303 303 303 303 303 303 302 301 300 300 300 301 302 303 304 305 305 306 307 307 307
305 305 304 304 304 304 304 304 304 304 304 303 303 303 303 304 304 304 303 303 302 302 302 302 302 302 302 302 301 301 300 301 302 303 304 305 306 306 307 306 306 307
304 304 304 304 304 304 304 304 304 303 303 303 303 302 302 303 303 303 303 302 302 303 302 302 302 301 301 300 300 301 301 302 303 304 305 305 305 306 306 306 305 305
304 304 303 303 303 303 303 303 303 303 302 302 302 302 301 302 302 302 303 302 302 302 302 301 301 301 300 299 300 301 302 302 303 304 305 305 305 305 305 305 304 304
303 303 303 303 303 303 302 302 302 302 302 302 302 302 301 301 301 301 302 302 301 301 301 301 300 299 298 298 299 300 301 302 303 303 303 304 304 304 305 304 304 303
303 302 302 302 302 302 301 301 301 301 301 301 301 301 302 301 301 301 300 300 301 301 300 301 300 299 298 296 297 299 301 302 302 303 303 302 303 303 303 303 303 303
301 301 301 301 301 300 300 301 301 301 301 300 300 300 301 301 300 300 300 300 300 300 300 300 299 298 296 294 295 297 299 301 302 303 302 302 302 301 302 302 302 302
300 299 300 299 300 300 300 300 300 300 300 300 300 300 300 300 300 300 300 300 299 299 299 299 298 297 293 292 292 293 298 301 301 301 302 301 301 300 299 300 300 301
299 299 298 299 299 299 299 299 299 299 299 299 299 299 300 300 299 299 299 300 300 299 299 299 298 295 291 292 292 292 294 299 301 300 300 300 300 299 299 299 299 299
298 298 298 298 298 298 299 299 299 298 298 298 299 299 300 299 299 299 299 299 299 298 298 298 298 293 292 292 292 291 291 296 300 300 300 300 299 299 299 298 298 298
297 297 297 297 298 298 298 298 298 298 298 299 299 299 299 299 299 299 299 298 299 299 298 298 298 294 292 292 292 291 291 294 300 300 300 300 299 299 298 298 297 297
297 297 297 297 298 298 298 298 298 298 298 298 299 298 298 298 298 298 298 298 299 298 298 298 297 292 291 291 291 291 291 295 300 299 299 299 299 299 298 298 297 297
297 296 297 297 297 297 297 297 297 298 298 298 299 299 299 299 298 299 298 298 298 298 298 298 298 292 291 291 291 291 293 299 299 298 298 298 298 298 298 298 298 297
297 296 296 297 297 297 296 297 297 297 298 299 298 298 298 298 298 298 298 297 298 298 297 297 298 294 291 291 291 290 295 299 298 298 297 297 297 298 298 298 297 297
297 297 296 296 296 296 296 297 297 298 297 298 298 297 297 298 298 298 298 298 297 297 297 297 298 296 291 291 291 291 294 298 298 297 297 296 296 297 297 297 297 297
297 297 296 296 296 296 297 296 297 297 298 299 298 298 298 298 298 297 297 298 298 298 297 298 298 297 292 291 291 291 294 298 297 296 295 295 296 296 297 297 297 296
297 297 297 296 296 296 297 296 297 297 298 298 298 298 297 297 297 297 297 297 298 298 298 298 297 298 296 291 291 291 291 296 297 295 295 295 295 295 295 296 296 296
Wind_Speed
8 7 7 6 6 6 6 6 6 5 5 5 5 5 5 5 6 6 7 6 8 7 7 8 8 8 7 7 8 8 7 8 7 7 8 8 9 11 10 12 11 10
9 8 7 7 6 6 6 6 6 6 6 6 5 5 5 6 7 6 6 7 7 8 9 8 8 8 9 8 9 8 8 8 9 7 9 11 9 9 10 12 12 11
9 9 9 9 7 8 7 7 7 6 6 6 6 6 5 6 7 8 8 8 8 9 9 9 9 10 10 10 10 9 9 10 10 10 9 10 9 9 9 10 9 12
10 9 9 9 8 8 7 7 7 6 6 6 7 6 6 6 7 8 9 10 9 9 9 10 11 10 11 11 11 9 10 10 10 11 10 9 9 9 10 9 10 9
10 10 9 8 8 8 7 8 8 7 8 8 7 7 7 8 8 9 9 9 9 9 10 11 11 11 11 11 11 10 10 9 10 11 10 11 10 11 10 10 11 12
10 9 9 9 8 8 8 8 8 8 7 8 9 8 8 9 9 10 10 10 10 10 11 11 12 11 11 11 10 10 10 9 10 11 11 10 10 10 10 11 12 12
10 9 9 9 9 9 8 8 8 8 8 7 7 9 9 9 10 10 11 11 11 11 12 12 12 12 11 11 11 11 10 10 10 11 11 10 10 11 10 11 11 12
10 9 9 9 10 10 10 9 9 9 8 8 8 9 10 10 11 10 10 11 11 12 13 13 13 13 13 11 11 11 11 9 10 11 11 10 10 11 12 10 11 12
9 9 9 10 11 10 11 10 9 9 9 9 8 8 10 10 11 11 11 12 12 12 13 13 14 13 13 12 11 11 11 11 11 11 11 11 11 12 12 12 12 12
10 10 11 11 11 10 11 11 9 9 9 9 9 9 10 10 11 11 11 12 12 13 13 13 14 14 14 13 12 12 11 12 11 11 11 11 12 12 13 13 13 14
11 11 11 12 12 10 11 11 10 9 9 10 9 10 10 10 11 11 12 12 12 13 13 13 14 14 15 15 13 12 12 11 11 11 11 12 12 11 11 11 11 12
11 11 12 12 11 11 11 10 10 10 9 9 10 10 10 11 12 12 12 13 13 13 13 13 13 14 14 14 14 13 12 11 11 11 11 11 11 11 12 11 10 11
10 10 10 10 10 10 9 10 10 10 10 10 9 10 10 10 11 13 12 12 13 12 13 14 14 14 15 15 15 14 12 12 12 12 12 11 12 12 12 12 11 11
9 9 10 10 9 10 10 10 9 9 9 9 9 10 10 11 12 12 11 11 12 13 13 12 13 14 16 16 15 14 13 12 12 12 13 12 13 13 13 13 13 12
8 8 9 9 9 10 10 10 9 9 10 9 10 9 8 10 10 10 10 11 11 11 12 11 11 12 13 15 14 14 13 11 12 12 13 13 14 14 14 14 14 14
9 9 9 8 9 9 9 9 9 9 9 10 10 10 9 9 9 9 10 10 10 11 11 10 13 13 19 22 19 14 12 10 11 11 12 12 13 14 14 15 15 14
8 8 8 9 8 8 8 9 10 9 9 10 9 9 9 9 9 10 10 10 11 11 12 11 12 15 22 19 19 21 14 10 11 11 12 12 13 14 14 15 16 16
8 9 8 8 8 8 8 9 9 9 9 9 8 9 8 8 10 10 9 10 9 11 12 12 13 19 19 20 19 19 17 11 10 10 11 11 12 14 13 14 15 15
8 8 8 7 7 8 8 8 9 9 9 9 9 8 8 10 10 10 10 10 11 11 12 13 14 19 19 20 20 19 17 13 10 11 11 12 12 13 14 14 14 14
8 8 8 7 7 8 8 9 9 9 8 7 7 8 9 10 10 11 10 12 11 11 11 13 16 19 19 20 20 19 17 13 12 11 11 12 13 13 13 14 15 15
8 8 8 7 8 8 9 9 9 8 9 7 8 8 9 9 9 10 10 12 11 12 11 12 13 18 19 20 19 19 16 11 14 11 12 12 12 13 14 14 15 15
8 8 7 8 9 9 9 9 9 8 8 7 7 8 8 8 9 9 10 12 11 12 11 13 12 18 19 19 20 21 17 11 14 13 13 12 13 14 14 13 14 16
7 8 8 9 9 9 9 9 9 8 7 6 8 8 9 9 9 9 9 12 12 13 12 11 13 16 19 19 20 21 15 13 13 12 12 13 13 14 13 14 14 16
8 8 9 9 9 10 9 8 8 7 7 6 7 8 9 8 7 9 9 11 12 11 11 12 11 15 18 19 19 20 16 13 12 12 12 13 13 14 13 13 15 20
8 9 9 9 10 9 8 8 7 6 5 6 6 7 7 7 8 8 9 9 9 10 11 12 12 14 18 19 19 19 15 12 12 11 12 13 13 13 13 13 14 15
8 9 9 10 10 9 8 7 6 7 7 7 7 7 8 8 8 9 10 9 9 10 10 11 12 13 15 18 18 18 19 12 12 11 12 13 13 13 13 14 15 15
Wind_Direction
74 74 71 69 64 58 53 51 50 49 44 31 28 23 25 23 19 22 22 23 26 24 18 12 8 5 358 356 355 346 345 340 335 340 337 333 330 327 320 313 310 306
71 69 69 69 66 61 59 54 51 48 45 39 33 29 30 26 26 16 20 20 22 20 12 8 5 3 0 357 350 343 343 343 338 345 333 329 328 328 324 322 315 309
70 70 67 64 62 60 56 52 50 45 42 38 34 29 26 22 22 23 24 20 23 18 16 12 9 7 2 358 351 347 345 340 340 339 331 327 327 329 326 327 323 318
70 67 67 64 57 52 48 47 43 45 43 41 35 31 32 29 27 27 27 28 24 22 18 18 14 11 5 2 357 354 350 347 347 342 336 332 332 330 328 326 320 320
69 68 63 63 61 59 55 53 47 44 46 42 39 36 34 34 33 32 32 32 30 25 21 18 16 12 6 2 359 355 352 348 348 346 343 340 338 337 332 330 327 323
69 67 65 65 63 61 59 54 49 43 41 43 41 40 40 40 41 39 36 35 31 27 23 20 16 11 6 360 357 355 350 347 344 342 341 340 338 338 335 331 329 327
70 69 69 67 64 61 60 54 49 43 39 39 40 42 41 42 42 41 38 35 32 28 24 19 14 10 5 358 357 352 348 343 342 343 340 339 334 331 334 333 332 328
72 69 68 64 65 58 55 52 47 42 36 36 42 40 42 42 43 40 38 35 33 29 24 20 16 11 5 0 355 351 346 346 341 340 339 336 335 335 336 335 326 324
72 67 64 63 61 56 51 49 46 44 38 38 40 40 44 45 42 41 39 37 35 30 24 21 16 11 7 0 355 350 345 344 341 340 338 337 336 334 334 331 328 325
69 66 62 60 59 55 52 49 47 45 40 41 41 41 45 46 44 40 40 37 35 30 25 21 18 15 10 7 359 351 346 341 339 340 339 340 339 336 333 334 333 330
67 64 62 60 59 56 52 50 47 46 42 40 41 44 44 44 45 42 40 38 34 29 26 23 19 15 10 7 2 355 347 344 342 343 340 338 340 341 341 337 335 334
67 64 61 59 56 55 51 49 46 44 43 42 40 43 46 47 46 45 41 39 37 32 28 24 20 15 9 3 359 355 353 351 349 346 346 344 343 342 342 339 337 335
66 64 62 59 57 54 54 50 48 45 45 43 41 42 45 45 45 47 43 40 36 31 29 24 20 15 9 2 359 358 355 356 356 354 352 351 347 345 344 343 339 338
69 67 63 62 59 59 56 54 51 50 47 45 43 43 42 43 46 45 45 41 39 38 33 28 22 19 13 4 359 358 354 357 358 357 356 353 349 349 349 346 344 340
75 67 65 63 62 61 58 55 54 51 49 47 45 45 41 42 46 45 43 42 39 38 34 27 23 17 13 5 358 355 354 356 357 358 358 355 352 351 351 350 348 345
77 73 69 66 64 62 60 59 57 54 51 50 47 44 42 39 43 43 42 40 37 33 31 30 25 19 2 359 2 358 352 356 358 360 0 358 355 351 349 349 349 345
77 73 71 69 67 66 64 61 58 55 53 51 48 44 41 39 39 41 40 33 33 32 31 30 25 10 358 359 357 357 356 356 2 359 360 359 358 355 349 348 346 345
80 78 75 72 71 68 66 62 59 57 55 51 48 44 42 41 41 37 37 34 32 35 35 29 25 8 358 359 358 354 356 353 9 1 0 0 358 355 352 351 348 345
81 81 80 77 73 71 66 64 60 58 54 50 47 42 43 43 38 35 34 34 33 35 34 30 22 8 358 360 359 354 349 343 18 2 2 4 359 357 354 353 351 347
85 85 83 79 77 73 70 65 63 59 55 51 48 44 43 42 38 35 33 38 36 33 34 31 23 6 1 1 1 354 346 339 22 6 5 5 1 359 356 356 355 352
88 87 84 82 78 74 70 65 61 59 55 51 49 45 44 41 35 32 32 37 34 34 34 31 24 7 4 1 1 356 341 359 19 13 9 5 1 358 358 358 356 356
89 88 86 83 78 74 71 66 62 56 53 49 53 53 50 46 43 35 35 37 34 33 33 31 27 15 4 4 1 359 345 18 17 14 11 7 4 0 359 0 359 359
88 87 83 80 77 76 70 64 61 56 51 45 56 52 48 45 42 38 39 42 36 36 33 29 30 19 8 5 4 1 0 20 16 14 12 9 7 5 2 1 0 359
85 84 83 78 76 74 70 67 64 61 57 43 54 54 51 42 41 45 43 45 41 33 23 28 25 23 13 8 6 5 356 16 15 13 12 10 8 9 5 2 360 2
83 82 80 79 76 69 66 68 62 60 56 55 57 59 53 50 44 47 46 42 34 29 17 20 22 24 17 9 8 8 5 17 15 14 12 12 9 7 6 4 3 5
82 79 75 75 76 73 69 66 67 65 57 59 58 57 57 52 50 48 47 42 32 30 30 26 20 25 20 10 11 11 7 6 23 17 14 13 12 11 7 8 8 7